GFSWCAN_prec_radar_042.txt.gz
Reflectivity
22 -13 -4 -13 -20 -8 11 12 11 2 -20 -20 -20 -20 -20 -20 -20 -20 4 -4 -20 -20 -20 -20 -20 -20 -20 -20 -20 -20 -20 -20 -20 -20 -20 -20 -20 -20 -20 -20 -20 -20 -20 -20 -20 -20 -20 -20 -20 -20 -20 -20 -20 -20
-20 -20 -20 -20 -20 4 11 9 9 8 -17 -19 -20 -20 -20 -20 -20 -20 5 -20 -20 -20 -20 -20 -20 -20 -20 -20 -20 -20 -20 -20 -20 -20 -20 -20 -20 -20 -20 -20 -20 -20 -20 -20 -20 -20 -20 -20 -20 -20 -20 -20 -20 -20
-20 -7 -16 8 9 10 -12 7 -20 19 -20 -20 -20 -20 -20 -20 -19 26 23 -20 -20 -20 -20 -20 -20 -20 -20 -20 -20 -20 -20 -20 -20 -20 -20 -20 -20 -20 -20 -20 -20 -20 -20 -20 -20 -20 -20 -20 -20 -20 -20 -20 -20 -20
-19 14 -13 -10 6 -18 0 3 -20 4 7 -20 -20 -20 -20 -20 -20 -20 8 -20 -20 -20 -11 -20 -20 -20 -20 -20 -20 -20 -20 -20 -20 -20 -20 -20 -20 -20 -20 -20 -20 -20 -20 -20 -20 -20 -20 -20 -20 -20 -20 -20 -20 -20
-14 -9 2 16 -5 4 10 -17 -20 -6 6 2 -20 -20 -20 -20 -20 -20 -20 -20 -20 -20 -20 -20 -20 -20 -20 -20 -20 -20 -20 -20 -20 -20 -20 -20 -20 -20 -20 -20 -20 -20 -20 -20 -20 -20 -20 -20 -20 -20 -20 -20 -20 -20
-20 -20 -14 -20 -15 23 -9 -12 -20 -20 -15 -5 -1 -20 -20 -20 -20 -20 -20 -20 -20 -20 -20 -20 -20 -20 -20 -20 -11 -20 -20 -20 -20 -20 -12 -20 -20 -20 -20 -20 -20 -20 -20 -20 -20 -20 -20 -20 -20 -20 -20 -20 -20 -20
-20 -20 -20 -19 -12 31 13 26 -11 -20 -6 -20 -20 -20 -20 -20 -20 -20 -20 -15 8 -20 -20 -20 -20 -20 -20 -20 -20 -20 -20 -20 -20 -20 -17 -20 -20 -20 -19 -20 -20 -20 -20 -20 -20 -20 -20 -20 -20 -20 -20 -20 -19 -18
-2 -20 -19 -20 -5 30 17 -6 -5 -20 -20 -20 -20 -20 -20 -20 -20 -20 -20 -20 -20 -20 -20 -20 -20 -20 -20 -20 -12 -20 -20 -20 -20 -11 -2 -10 -0 -5 -20 -20 -20 -20 -20 -20 -20 -20 -20 -20 -20 -20 -20 -18 -19 -20
-9 -20 -20 -14 16 29 -10 -20 -20 -19 -17 -20 -20 -20 -20 -20 -20 -20 -20 -20 -20 -20 -20 -20 -20 -20 -20 -19 -18 -18 -20 -20 -20 -1 7 -20 -20 -20 -20 -20 -20 -20 -20 -20 -20 -20 -20 -20 -20 -20 -20 -20 22 25
-18 -20 -20 -20 11 33 -2 -20 -20 -9 -20 -20 -20 -20 -20 -20 -20 -20 -20 -20 -20 -20 -20 -20 -19 -20 -20 -20 -20 -20 -20 -20 -20 -20 -20 -20 -20 -20 -20 -20 -20 -20 -20 -20 -20 -20 -20 -20 -16 16 32 11 -20 -20
14 -16 -20 -20 -20 8 32 19 -14 -14 5 -14 -20 -11 -20 -20 -20 -20 -20 -20 -20 -20 -20 -20 -20 -20 -20 -20 -20 -20 -20 -20 -20 -20 -20 -20 -20 -20 -20 -20 -20 -20 -20 -20 -20 -20 -2 19 9 -8 -17 -17 -20 -20
34 29 12 -8 -3 7 -14 5 18 13 14 -4 -1 2 6 4 -12 -16 -20 -20 -20 -20 -20 -20 -20 -20 -20 -20 -20 -20 -20 -20 -20 -20 -20 -17 -12 -20 -20 -20 -20 -20 -20 -12 -8 -9 -14 -19 -20 -20 -17 -19 -20 -20
32 31 29 22 11 1 -16 -11 -16 -20 -18 -15 -16 -16 -15 -5 -19 -20 -20 -14 -11 -20 -20 -20 -20 -20 -20 -20 -20 -20 -20 -20 -19 -20 -20 -3 -19 -20 -20 -6 -8 -17 -20 -19 -20 -20 -20 -20 -20 -20 -20 -20 -20 -20
31 31 28 25 24 18 19 -4 -20 -20 -20 -20 -20 -20 -20 -20 -20 -20 -20 -20 -20 -18 -4 -11 -18 -20 -20 -20 -17 -19 9 14 -3 -18 -20 9 16 20 22 -18 -20 -20 -19 -20 -20 -20 -20 -20 -20 -20 -20 -20 -20 -20
16 20 25 26 27 27 29 24 12 9 -4 -1 -18 -16 -20 -20 -20 -11 -17 -18 -20 -15 -20 -10 -9 -11 -15 10 -4 5 1 -20 -19 -20 -20 24 12 -19 -20 -20 -20 -20 -20 -20 -20 -20 -20 -20 -20 -20 -20 -20 -20 -20
-7 1 5 19 23 23 30 25 16 20 5 16 -14 -20 -20 -20 1 -17 -5 -19 -4 -3 6 19 1 7 12 -8 -19 -16 -14 -20 -20 -15 17 21 3 -19 -20 -20 -20 -20 -20 -20 -20 -20 -20 -20 -20 -20 -20 -20 -20 -20
-10 -2 -0 3 3 6 15 21 23 32 29 26 9 16 13 7 -13 -2 23 16 19 15 -15 -4 -20 -20 -20 -20 -20 -20 -20 -20 -20 -8 -5 -11 -18 -20 -20 -20 -20 -20 -20 -20 -20 -20 -20 -20 -20 -20 -20 -20 -20 -20
-20 -20 -20 -20 -20 -20 -16 -14 -4 5 1 3 4 1 -16 -12 -17 -20 -20 -13 -16 -20 -20 -20 -20 -20 -20 -20 -20 -20 -20 -20 -14 -20 -20 -19 -5 2 7 -16 -20 -20 -20 -20 -20 -20 -20 -20 -20 -20 -20 -20 -20 -20
-20 -20 -20 -20 -20 -20 -20 -20 -20 -20 -18 -20 -17 -19 -20 -20 -20 -12 -8 -18 -13 -20 -20 -20 -20 -20 -20 -20 -20 -20 -20 -20 -20 -20 4 20 22 -17 -20 -20 -20 -20 -20 -20 -20 -20 -20 -20 -12 -20 -20 -20 -20 -20
-20 -20 -20 -20 -20 -20 -20 -20 -20 -20 -20 -15 -20 -20 -20 -20 -20 -20 -20 -20 -20 -20 -20 -20 -20 -20 -20 -20 -20 -20 -20 -20 -20 -20 -20 -20 -20 -20 -20 -20 -20 -20 -20 -20 -20 -20 -20 -20 -20 -20 -20 -20 -20 -20
-20 -20 -20 -20 -20 -20 -20 -20 -20 -20 -5 -20 -20 -20 -20 -20 -20 -20 -20 -20 -20 -20 -20 -20 -20 -20 -20 -20 -20 -20 -20 -20 -20 -20 -20 -20 -20 -20 -20 -20 -20 -20 -20 -20 -20 -20 -20 -20 -20 -20 -20 -20 -20 -20
-20 -9 -20 -20 -20 -20 -20 -20 -20 -20 -20 -20 -20 -20 -20 -20 -20 -20 -20 -20 -20 -20 -20 -20 -20 -20 -20 -20 -20 -20 -20 -20 -20 -20 -20 -20 -20 -20 -20 -20 -20 -20 -20 -20 -20 -20 -20 -20 -20 -20 -20 -20 -20 -20
-20 -20 -20 -20 -20 -20 -20 -20 -20 -20 -20 -20 -20 -20 -20 -20 -20 -20 -20 -20 -20 -20 -20 -20 -20 -20 -20 -20 -20 -20 -20 -20 -20 -20 -20 -20 -20 -20 -20 -20 -20 -20 -20 -20 -20 -20 -20 -20 -20 -20 -20 -20 -20 -20
-20 -20 -20 -20 -20 -20 -20 -20 -20 -20 -20 -20 -20 -20 -20 -20 -20 -20 -20 -20 -20 -20 -20 -20 -20 -20 -20 -20 -20 -20 -20 -20 -20 -20 -20 -20 -20 -20 -20 -20 -20 -20 -20 -20 -20 -20 -20 -20 -20 -20 -20 -20 -20 -20
-20 -20 -20 -20 -20 -20 -20 -20 -20 -20 -20 -20 -20 -20 -20 -20 -20 -20 -20 -20 -19 -20 -20 -9 -20 -20 -20 -20 -20 -20 -20 -20 -20 -20 -20 -20 -20 -20 -20 -20 -20 -20 -20 -20 -20 -20 -20 -20 -20 -20 -20 -20 -20 -20
-20 -20 -20 -20 -20 -20 -20 -20 -20 -20 -20 -20 -20 -20 -20 -20 -20 -20 -20 -19 -19 -19 -19 -18 -19 -20 -18 -16 -17 -18 -20 -20 -20 -20 -20 -20 -20 -20 -20 -20 -20 -20 -20 -20 -20 -20 -20 -20 -20 -20 -20 -20 -20 -20
-20 -20 -20 -20 -20 -20 -20 -20 -20 -20 -16 2 -15 -20 -20 -20 -20 -20 -20 -20 -20 -18 -16 -16 -17 -19 -19 -20 -20 -20 -20 -20 -20 -20 -20 -20 -20 -20 -20 -20 -20 -20 -20 -20 -20 -20 -20 -20 -20 -20 -20 -20 -20 -20
-20 -20 -20 -20 -20 -20 -20 -20 -20 -20 -20 -20 -16 -5 7 -17 -20 -20 -20 -18 -19 -18 -20 -20 -20 -20 -20 -20 -20 -20 -20 -20 -20 -20 -20 -20 -20 -20 -20 -20 -20 -20 -20 -20 -20 -20 -20 -20 -20 -20 -20 -20 -20 -20
-20 -20 -20 -20 -19 -5 -6 -13 -14 -1 -20 7 14 13 -2 -14 -10 -20 -20 -20 -20 -20 -20 -20 -20 -20 -20 -20 -20 -20 -20 -20 -20 -20 -20 -20 -20 -20 -20 -20 -20 -20 -20 -20 -20 -20 -20 -20 -20 -20 -20 -20 -20 -20
-20 -20 -10 -20 -20 -16 7 11 3 8 11 7 -3 -20 -20 -20 -20 -20 -20 -20 -20 -20 -20 -20 -20 -20 -20 -20 -20 -20 -20 -20 -20 -20 -20 -20 -20 -20 -20 -20 -20 -20 -20 -20 -20 -20 -20 -20 -20 -20 -20 -20 -20 -20
-20 -20 -13 -20 -20 -12 7 6 8 -6 -6 -17 -20 -20 -20 -20 -20 -20 -20 -20 -20 -20 -20 -20 -20 -20 -20 -20 -20 -20 -20 -20 -20 -20 -20 -20 -20 -20 -20 -20 -20 -20 -20 -20 -20 -20 -20 -20 -20 -20 -20 -20 -20 -20
-20 -20 -20 -20 -20 -20 -20 -20 -20 -20 -20 -20 -20 -20 -20 -20 -20 -20 -20 -20 -20 -20 -20 -20 -20 -20 -20 -20 -20 -20 -20 -20 -20 -20 -20 -20 -20 -20 -20 -20 -20 -20 -20 -20 -20 -20 -20 -20 -20 -20 -20 -20 -20 -20
-20 -20 -20 -20 -20 -20 -20 -20 -20 -20 -20 -20 -20 -20 -20 -20 -20 -20 -20 -20 -20 -20 -20 -20 -20 -20 -20 -20 -20 -20 -20 -20 -20 -20 -20 -20 -20 -20 -20 -20 -20 -20 -20 -20 -20 -20 -20 -20 -20 -20 -20 -20 -20 -20

GFSWCAN_prec_radar_045.txt.gz
Reflectivity
34 30 23 24 23 -7 -20 -5 9 10 -0 -20 -5 1 -15 -20 -20 -20 -20 10 -20 -20 -20 -20 -20 -20 -20 -20 -20 -20 -20 -20 -20 -20 -20 -20 -20 -20 -20 -20 -20 -20 -20 -20 -20 -20 -20 -20 -20 -20 -20 -20 -20 -20
34 32 28 7 -19 7 12 11 10 -20 -20 -20 -20 -20 -20 -20 -20 -20 -19 1 -20 22 -20 -20 -20 -20 -20 -20 -20 -20 -20 -20 -20 -20 -20 -20 -20 -20 -20 -20 -20 -20 -20 -20 -20 -20 -20 -20 -20 -20 -20 -20 -20 -20
11 4 11 6 11 14 12 4 -20 -20 -20 -20 -2 -20 -20 -20 -20 -20 -20 -7 -16 26 -20 -20 -20 -20 -20 -20 -20 -20 -20 -20 -20 -20 -20 -20 -20 -20 -20 -20 -20 -20 -20 -20 -20 -20 -20 -20 -20 -20 -20 -20 -20 -20
5 3 -0 10 12 -0 -12 -20 -11 -20 -20 -20 -20 -20 -20 -20 -20 -14 2 33 25 21 21 -20 -20 -20 -20 -20 -20 -20 -20 -20 -20 -20 -20 -20 -20 -20 -20 -20 -20 -20 -20 -20 -20 -20 -20 -20 -20 -20 -20 -20 -20 -20
-20 -4 9 -5 -20 -20 -9 -6 -15 -20 -20 19 -20 -20 8 3 -20 -20 -6 -2 12 -18 10 2 -20 -20 -20 -20 -20 -20 -20 -20 -20 -20 -20 -20 -20 -20 -20 -20 -20 -20 -20 -20 -20 -20 -20 -20 -20 -20 -20 -20 -20 -20
-11 -7 4 6 -7 3 -20 -6 -20 -20 -18 -19 -20 -20 -20 -19 -20 -20 17 -15 -20 -20 -20 2 -19 -19 -10 -1 -20 -20 -20 -20 -20 -20 -13 -20 -20 -20 -20 -20 -20 -20 -20 -20 -20 -20 -20 -20 -20 -20 -20 -20 -20 -20
-15 3 -19 -20 -20 4 -20 -3 8 14 -18 -6 -20 -4 -10 -20 -19 5 -20 -8 2 -20 -20 -20 -20 -20 -20 3 -20 -20 -20 -20 -20 -20 -20 -20 -20 -20 -20 -20 -20 -20 -20 -20 -20 -20 -20 -20 -20 -20 -20 -20 -20 -20
-7 16 12 -20 -13 5 -20 8 25 -8 -17 -8 1 -20 -20 -20 -19 -7 -20 -20 -20 -20 -20 -20 -20 -20 -20 -20 -19 -20 -20 -20 -20 -20 -13 -20 -6 -7 -20 -20 -20 -20 -20 -20 -20 -20 -20 -20 -20 -20 -20 -19 -16 -14
-1 -19 -16 -18 1 33 -10 -20 -20 -20 -20 25 29 19 12 -17 -20 -20 -20 -20 -20 -20 -20 -20 -20 -20 -20 -20 -20 -20 -20 -20 -20 -18 -1 -20 -20 -20 -20 -20 -20 -20 -20 -20 -20 -20 -20 -20 -20 -20 -20 -17 16 17
-15 24 9 6 -5 32 32 1 -20 -20 -20 -20 -20 -20 -20 -20 -20 -20 -20 -20 -20 -20 -20 -20 -20 -20 -20 -20 -20 -20 -20 -20 -20 -20 -20 -20 -20 -20 -20 -20 -20 -20 -20 -20 -20 -20 -20 -20 -19 -2 -2 -17 -20 -20
-19 -0 7 11 10 5 17 23 -1 -15 -20 -20 -20 -7 -20 -20 -20 -20 -20 -20 -20 -20 -20 -20 -20 -20 -20 -20 -5 -20 -20 -20 -20 -20 -14 -20 -20 -20 -20 -20 -20 -20 -20 -17 -15 -18 -5 -16 -18 -20 -20 -20 -20 -20
17 4 14 29 9 18 33 17 -20 -18 -9 -18 -20 -20 -20 -20 -20 -20 -20 -20 -20 -20 -20 -17 -20 -20 -20 -20 -20 -20 -20 -20 -20 -20 -20 -19 -17 -20 -15 -2 -8 -20 -20 -20 -20 -20 -20 -20 -20 -20 -20 -20 -20 -20
32 21 17 3 4 24 33 28 25 24 23 6 -8 -7 -13 -7 -4 -20 -20 -20 -20 -20 -2 -17 -20 -20 -20 -20 -20 -20 -20 -20 -20 -20 -20 -20 -20 -4 -7 -16 -20 -20 -20 -20 -20 -20 -20 -20 -20 -20 -20 -20 -20 -20
33 26 19 13 13 6 -7 -10 3 15 23 19 28 25 -1 -13 -20 -18 -20 -20 -20 -10 -20 -20 -20 -20 -20 -20 -20 -17 -14 -8 -17 -3 -20 -18 3 23 -16 -20 -20 -20 -20 -20 -20 -20 -20 -20 -20 -20 -20 -20 -20 -20
33 33 30 19 17 12 4 0 5 9 11 -10 -20 -20 -20 -20 -17 -20 -20 -20 -2 -6 -10 -20 -14 -20 -20 -20 -20 -20 -17 -20 -20 -20 -20 10 -0 9 -20 -18 -19 -20 -20 -20 -20 -20 -20 -20 -20 -20 -20 -20 -20 -20
25 29 32 28 25 26 26 11 -16 -18 -15 -1 -13 -20 -20 -20 -14 -20 -2 -14 -18 -19 -17 -4 -20 -20 -20 -20 -20 -20 -20 -20 -20 -20 21 16 10 -16 -20 -20 -20 -20 -20 -20 -20 -20 -20 -20 -20 -20 -20 -20 -20 -20
-1 11 7 15 22 23 28 29 25 27 30 23 -12 -8 -9 -20 -20 -18 14 11 15 21 -7 7 -5 -20 -20 -20 -20 -20 -20 -20 -20 14 25 11 -0 -20 -20 -20 -20 -20 -20 -20 -20 -20 -20 -20 -20 -20 -20 -20 -20 -20
6 0 -7 -19 -11 -2 0 17 29 27 18 13 -1 11 10 12 -0 -15 -15 -8 -8 -20 -11 -17 -20 -20 -20 -20 -20 -20 -20 -19 -10 -2 16 23 12 -9 -3 -14 -20 -20 -20 -20 -20 -20 -20 -20 -20 -20 -20 -20 -20 -20
-18 -3 -4 -3 -16 -12 -3 0 2 9 -8 -9 -6 -11 -13 -15 -17 -20 -20 -20 -20 -20 -20 -20 -20 -20 -20 -20 -20 -20 -20 -20 -20 -20 -17 8 6 -1 9 -1 -20 -20 -20 -20 -20 -20 -20 -20 -20 -20 -20 -20 -20 -20
-20 -20 -19 -20 -20 -20 -20 -15 -20 -20 -16 -11 -16 -19 -20 -20 -20 -20 -20 -20 -20 -20 -20 -20 -20 -20 -20 -20 -20 -20 -20 -20 -20 -20 -18 -7 -11 -14 -20 -20 -20 -20 -20 -20 -20 -20 -20 -20 -20 -20 -20 -20 -20 -20
-20 -20 -20 -20 -20 -20 -20 -20 -20 -20 -20 -20 -20 -20 -20 -20 -20 -20 -20 -20 -20 -20 -20 -20 -20 -20 -20 -20 -20 -20 -20 -20 -20 -20 -20 -20 -20 -20 -20 -20 -20 -20 -20 -20 -20 -20 -20 -20 -20 -20 -20 -20 -20 -20
-20 -20 -20 -20 -20 -20 -20 -20 -20 -20 -20 -20 -20 -20 -20 -20 -20 -20 -20 -20 -20 -20 -16 -20 -20 -20 -20 -20 -20 -20 -20 -20 -20 -20 -20 -20 -20 -20 -20 -20 -20 -20 -20 -20 -20 -20 -20 -20 -20 -20 -20 -20 -20 -20
-20 -20 -20 -20 -20 -20 -20 -20 -20 -20 -20 -20 -20 -20 -20 -20 -20 -20 -20 -20 -20 -20 -20 -20 -20 -20 -20 -20 -20 -20 -20 -20 -20 -20 -20 -20 -20 -20 -20 -20 -20 -20 -20 -20 -20 -20 -20 -20 -20 -20 -20 -20 -20 -20
-20 -20 -20 -20 -20 -20 -20 -20 -20 -20 -20 -20 -20 -20 -20 -20 -20 -20 -20 -20 -19 -20 -20 -20 -20 -20 -20 -20 -20 -20 -20 -20 -20 -20 -20 -20 -20 -20 -20 -20 -20 -20 -20 -20 -20 -20 -20 -20 -20 -20 -20 -20 -20 -20
-20 -20 -20 -20 -20 -20 -20 -20 -20 -20 -20 -20 -20 -20 -20 -20 -20 -20 -20 -19 -19 -19 -17 -8 -7 -8 -13 -20 -20 -20 -20 -20 -20 -20 -20 -20 -20 -20 -20 -20 -20 -20 -20 -20 -20 -20 -20 -20 -20 -20 -20 -20 -20 -20
-20 -20 -20 -20 -20 -20 -20 -20 -20 -20 -20 -20 -20 -20 -20 -20 -20 -20 -20 -18 -20 -19 -18 -18 -19 -20 -20 -20 -20 -20 -20 -20 -20 -20 -20 -20 -20 -20 -20 -20 -20 -20 -20 -20 -20 -20 -20 -20 -20 -20 -20 -20 -20 -20
-20 -20 -20 -20 -20 -20 -20 -20 -20 -20 -20 -20 -20 -17 -4 -12 -20 -20 -20 -20 -19 -16 -15 -15 -17 -20 -20 -20 -20 -20 -20 -20 -20 -20 -20 -20 -20 -20 -20 -20 -20 -20 -20 -20 -20 -20 -20 -20 -20 -20 -20 -20 -20 -20
-20 -20 -20 -20 -20 -20 -20 -20 -20 -20 -20 -20 -19 -20 -1 1 -9 -20 -20 -20 -18 -17 -20 -20 -20 -20 -20 -20 -20 -20 -20 -20 -20 -20 -20 -20 -20 -20 -20 -20 -20 -20 -20 -20 -20 -20 -20 -20 -20 -20 -20 -20 -20 -20
-20 -20 -20 -20 -20 -20 -20 -20 -20 -17 -15 1 -0 -3 0 7 11 5 1 -6 -18 -20 -20 -20 -20 -20 -20 -20 -20 -20 -20 -20 -20 -20 -20 -20 -20 -20 -20 -20 -20 -20 -20 -20 -20 -20 -20 -20 -20 -20 -20 -20 -20 -20
-20 -20 -20 -20 -20 -20 -19 -19 -6 -2 -3 1 3 -17 -20 -18 -14 -16 -20 -20 -20 -20 -20 -20 -20 -20 -20 -20 -20 -20 -20 -20 -20 -20 -20 -20 -20 -20 -20 -20 -20 -20 -20 -20 -20 -20 -20 -20 -20 -20 -20 -20 -20 -20
-20 -20 -20 -20 -20 -20 -20 -20 -17 -5 -20 -11 -2 -1 -17 -20 -20 -20 -20 -20 -20 -20 -20 -20 -20 -20 -20 -20 -20 -20 -20 -20 -20 -20 -20 -20 -20 -20 -20 -20 -20 -20 -20 -20 -20 -20 -20 -20 -20 -20 -20 -20 -20 -20
-20 -20 -20 -20 -20 -20 -20 -20 -20 -20 -20 -20 -20 -20 -20 -20 -20 -20 -20 -20 -20 -20 -20 -20 -20 -20 -20 -20 -20 -20 -20 -20 -20 -20 -20 -20 -20 -20 -20 -20 -20 -20 -20 -20 -20 -20 -20 -20 -20 -20 -20 -20 -20 -20
-20 -20 -20 -20 -20 -20 -20 -20 -20 -20 -20 -20 -20 -20 -20 -20 -20 -20 -20 -20 -20 -20 -20 -20 -20 -20 -20 -20 -20 -20 -20 -20 -20 -20 -20 -20 -20 -20 -20 -20 -20 -20 -20 -20 -20 -20 -20 -20 -20 -20 -20 -20 -20 -20

GFSWCAN_prec_radar_048.txt.gz
Reflectivity
14 8 12 13 34 36 32 32 30 27 6 -20 -7 8 9 9 -20 21 -17 -20 -20 -20 -17 -20 -20 -20 -20 -20 -20 -20 -20 -20 -20 -6 21 -16 -5 -20 -20 -20 -20 -20 -20 -20 -19 16 -20 -20 -20 -6 -20 -20 -20 -20
33 32 17 12 33 34 24 33 13 -16 -19 8 8 12 11 -15 -20 14 -12 17 -20 -20 -20 -20 -20 -20 -20 -20 -20 -20 -20 -20 -20 -18 14 -20 10 5 -20 -20 -20 -20 -19 -20 -20 -20 -20 -20 -20 -20 -20 -20 -20 -20
38 31 33 28 32 27 1 4 6 4 -7 -4 8 12 8 -20 -13 27 12 -13 -20 -20 -20 -20 -20 -20 -20 -20 -20 -20 -20 -20 -20 -20 -20 -20 23 -20 -20 -20 -20 -20 -20 -20 -20 -20 -20 -20 -20 -20 -20 -20 -20 -20
31 35 25 10 -1 4 8 9 2 -2 -20 -20 -8 1 -20 -20 -8 25 -13 -19 -20 5 21 -16 -20 -20 -20 -20 -20 -20 -20 -20 -20 -20 -20 -2 19 -20 -20 -20 -20 -20 -20 -20 -20 -20 -20 -20 -20 -20 -20 -20 -20 -20
12 1 -3 11 11 -0 -2 -16 -20 -20 -20 -20 -20 -20 -20 -20 -13 -1 -20 -9 -13 17 2 -6 -20 -20 -20 -20 -20 -20 -20 -20 -20 -0 15 -6 -20 -20 -20 -20 -20 -20 -20 -20 -20 -20 -20 -20 -20 -20 -20 -20 -20 -20
12 1 -11 -20 -20 -20 -20 -20 -20 -20 -20 -20 -20 -20 -20 -20 -20 -20 -20 -20 -20 36 0 3 -19 -20 -19 -20 -20 -20 -20 -20 -20 -20 -4 -20 -20 -20 4 -20 -20 -20 -20 -20 -20 -20 -20 -20 -20 -20 -20 -20 -20 -20
-20 -20 -20 -20 1 -19 -8 -10 28 27 -20 -11 -20 -20 -20 -20 -9 -19 -16 9 31 12 7 20 24 12 -18 -18 -19 5 -20 -20 -20 -20 -14 -17 -20 -20 -4 -20 -20 -20 -20 -20 -20 -20 -20 -20 -20 -20 -20 -20 -20 -20
-20 -20 -20 -20 17 15 -1 21 6 15 17 -17 -17 5 13 2 2 -17 -13 19 1 5 6 20 4 1 -15 -14 14 -20 -20 -12 -20 -20 -20 -20 -20 -20 -17 -20 -20 -20 -20 -20 -20 -20 -20 -20 -20 -20 -20 -20 -6 8
-19 -3 -20 -20 -20 -0 -6 -14 -1 15 13 -12 -10 -11 24 21 -1 -20 -2 1 7 -14 18 20 -10 14 -20 -20 -13 -20 -11 -11 -20 -1 -20 -20 -7 -14 -20 -20 -20 -20 -20 -20 -20 -20 -20 -20 -20 -20 -20 -10 -15 -18
-20 -20 -20 -4 13 -8 -10 3 18 -20 -20 -20 -20 -20 -20 -20 -20 -19 2 -13 -20 -20 -20 -20 -20 -20 -20 -20 -16 -19 -20 -20 -20 -4 -20 -8 -20 -20 -20 -20 -20 -20 -20 -20 -20 -20 -10 0 -20 -20 -20 -20 -20 -20
24 23 22 2 21 24 22 -15 -20 -17 5 -15 -20 2 -13 1 6 -15 3 -1 -4 14 -16 -13 -20 -20 -20 -20 -6 -20 -20 -16 -2 -20 -14 -3 -20 -20 -20 -20 -20 -20 -20 -17 -20 -20 -17 -18 -20 -20 -20 -20 -20 -20
15 25 17 2 -12 -8 15 -11 -20 -20 15 12 3 14 8 -20 -1 -19 -13 -0 3 -19 -20 -10 -14 -8 -20 -20 -20 -11 -20 -5 -17 -20 -11 -20 -5 -18 -20 -6 -13 -13 -20 -20 -20 -20 -20 -20 -20 -20 -20 -20 -20 -20
24 11 3 -2 -20 -4 10 17 -15 -20 -20 -20 -13 13 2 14 4 11 -20 -20 -20 -20 -7 5 8 -20 -20 -18 -1 11 -15 -16 -18 3 -20 -20 -20 -1 -1 -20 -20 -20 -20 -20 -20 -20 -20 -20 -20 -20 -20 -20 -20 -20
27 25 23 28 20 22 27 25 24 3 -1 -20 18 -20 16 14 -19 -15 -19 -4 -7 -5 -20 -20 -19 -20 -11 8 6 2 -13 -19 -0 3 -14 -20 1 -2 -8 -19 -20 -20 -20 -20 -20 -20 -20 -20 -20 -20 -20 -20 -20 -20
29 15 24 26 25 22 25 27 30 21 21 32 26 21 23 -20 -4 -2 -11 -20 -20 -20 -20 -15 -9 -18 -20 -13 -20 -19 -6 -5 -10 -13 -17 -4 2 -6 -20 -20 -20 -20 -20 -20 -20 -20 -20 -20 -20 -20 -20 -20 -20 -20
29 19 12 18 9 -3 15 17 23 27 22 16 -2 -18 -14 -16 -5 -20 -20 -17 -20 -20 -20 -20 -20 -11 -20 -20 -20 -19 -6 -20 -1 -7 -7 16 5 -19 -20 -20 -20 -20 -20 -20 -20 -20 -20 -20 -20 -20 -20 -20 -20 -20
10 28 28 20 15 10 -1 -6 -2 3 21 -9 -19 -6 -11 -18 -20 -8 -14 -9 -15 -17 -19 -20 -20 -20 -11 -20 -20 -20 -5 -20 -16 -2 9 0 -17 -20 -20 -20 -20 -20 -20 -20 -20 -20 -20 -20 -20 -20 -20 -20 -20 -20
10 -7 3 -16 -20 15 25 20 23 25 -10 -3 -13 -10 -3 -2 -1 -9 -2 5 -3 13 20 -19 -20 -20 -20 -20 -20 -20 -17 2 0 3 19 7 -20 -20 -20 -20 -20 -20 -20 -20 -20 -20 -20 -20 -20 -20 -20 -20 -20 -20
-6 -12 -10 -17 -13 7 13 17 27 14 4 23 28 10 1 -13 -6 -5 -10 -20 -20 -20 -20 -20 -20 -20 -11 -20 -20 -18 0 -19 -11 -19 -11 22 21 17 5 -14 -14 -4 -20 -20 -20 -20 -20 -20 -20 -20 -20 -20 -20 -20
-5 -18 -12 -20 -20 -3 -1 7 -1 1 9 4 6 5 -6 -9 -8 -5 -20 -20 -20 -20 -20 -20 -20 -20 -20 -20 -20 1 -8 -20 -20 -20 -19 -17 -11 6 3 -12 -20 -20 -20 -20 -20 -20 -20 -20 -20 -20 -20 -20 -20 -20
-20 -20 -20 -20 -20 -20 -20 -16 -16 -7 -11 -19 -1 -13 -17 -20 -20 -20 -20 -20 -20 -20 -20 -20 -7 -2 -20 -20 -20 -20 -20 -20 -20 -20 -20 -20 -20 -20 -20 -20 -20 -20 -20 -20 -20 -20 -20 -20 -20 -20 -20 -20 -20 -20
-20 -20 -20 -20 -20 -20 -20 -20 -20 -20 -20 -14 -20 -20 -20 -20 -20 -20 -20 -20 -3 -1 -4 -7 -20 -20 -20 -20 -20 -20 -20 -20 -20 -20 -20 -20 -20 -20 -20 -20 -20 -20 -20 -20 -20 -20 -20 -20 -20 -20 -20 -20 -20 -20
-20 -20 -20 -20 -20 -20 -20 -20 -20 -20 -9 -20 -20 -20 -20 -20 -8 -20 -12 -15 -20 -20 -14 -20 -20 -20 -20 -20 -20 -20 -20 -20 -20 -20 -20 -20 -20 -20 -20 -20 -20 -20 -20 -20 -20 -20 -20 -20 -20 -20 -20 -20 -20 -20
-20 -20 -20 -20 -20 -20 -20 -20 -20 -5 0 3 -4 -20 -19 -20 -20 -20 -4 -5 1 1 -20 -20 -20 -20 -20 -20 -20 -20 -20 -20 -20 -20 -20 -20 -20 -20 -20 -20 -20 -20 -20 -20 -20 -20 -20 -20 -20 -20 -20 -20 -20 -5
-20 -20 -20 -20 -20 -20 -20 -20 -20 -20 -20 -20 -19 -20 -19 -20 -20 -20 -18 -12 -19 -19 -8 7 5 -3 2 -0 -16 -20 -20 -20 -20 -20 -20 -20 -20 -20 -20 -20 -20 -20 -20 -20 -20 -20 -20 -20 -20 -20 -20 -20 -20 -20
-20 -5 -19 -20 -20 -20 -20 -20 -20 -20 -20 -20 -13 -20 -20 -20 -20 -20 -20 -2 -3 -17 -7 -1 -11 -6 -2 -9 -20 -20 -20 -20 -20 -20 -20 -20 -20 -20 -20 -20 -20 -20 -20 -16 -20 -20 -20 -20 -20 -20 -20 -20 -15 -4
-20 -20 -3 -20 -20 -20 -20 -20 -20 -20 -20 -20 -20 -14 -1 -20 -19 -20 -3 -20 -16 -17 -17 -13 -16 -16 -18 -20 -20 -20 -20 -20 -20 -20 -20 -20 -20 -20 -20 -20 -20 -20 -20 -20 -20 -20 -20 -20 -20 -20 -20 -3 -2 -1
-20 -20 -20 -20 -20 -20 -20 -20 -20 -20 -20 -20 -20 -20 -20 -20 -20 -1 0 -4 -2 -7 -19 -20 -20 -20 -20 -20 -20 -20 -20 -20 -20 -20 -20 -20 -20 -20 -20 -20 -20 -20 -20 -20 -20 -20 -20 -6 -3 -2 -2 -17 -20 -11
-20 -20 -20 -20 -20 -20 -20 -20 -20 -19 -19 -11 -19 -20 -20 -20 -7 -2 -1 3 2 -3 -20 -20 -19 -20 -20 -20 -20 -20 -20 -20 -20 -20 -20 -20 -20 -17 -20 -20 -20 -20 -20 -20 -20 -20 -12 -2 -1 -11 -20 -20 -20 -18
-20 -20 -20 -20 -20 -20 -3 -3 -7 -3 -20 -18 -17 -20 -20 -13 -7 -14 -6 -12 -20 -19 -19 -20 -20 -20 -20 -20 -20 -20 -20 -20 -20 -20 -20 -20 -20 -20 -20 -3 -13 -13 -20 -20 -20 -20 -20 -20 -20 -20 -20 -20 -20 -20
-20 -20 -20 -20 -20 -20 -17 -16 -14 -20 -20 -20 -20 -20 -20 -20 -20 -20 -20 -20 -20 -20 -20 -20 -20 -20 -20 -20 -20 -20 -20 -20 -20 -20 -20 -20 -20 -18 -1 -14 -1 -16 -20 -20 -20 -20 -20 -20 -20 -20 -20 -20 -20 -20
-20 -20 -20 -20 -20 -20 -20 -20 -20 -20 -20 -20 -20 -20 -20 -20 -20 -20 -20 -20 -20 -20 -20 -20 -20 -20 -20 -20 -20 -20 -20 -20 -20 -20 -20 -20 -20 -2 -10 -20 -20 -20 -20 -20 -20 -20 -20 -20 -20 -20 -20 -20 -20 -20
-20 -20 -20 -20 -20 -20 -20 -20 -20 -20 -20 -20 -20 -20 -20 -20 -20 -15 -20 -20 -20 -20 -20 -20 -20 -20 -20 -20 -20 -20 -20 -20 -20 -20 -20 -20 -20 -20 -20 -7 -20 -20 -20 -20 -20 -20 -20 -20 -20 -20 -20 -20 -20 -20

GFSWCAN_prec_radar_051.txt.gz
Reflectivity
-15 -20 -20 9 -20 -20 -20 -9 -20 22 17 20 31 27 -6 -7 1 3 7 -8 -8 -20 -20 -20 3 -20 -20 -20 -20 -20 -20 -20 -20 -16 17 -15 -12 -20 -20 -20 -20 -20 -20 -20 -20 -20 -20 -20 -20 -20 -20 -20 -20 -20
-17 -16 -20 -20 -20 -20 -4 -15 11 27 19 32 22 17 15 17 6 -17 26 -12 -20 -20 -16 -20 -18 -20 -20 -20 -20 -20 -20 -20 -20 -19 8 -20 10 1 -20 -20 -20 -20 -20 -20 -20 -20 -20 -20 -20 -20 -20 -20 -20 -20
-19 -13 -4 4 11 18 19 31 28 29 35 18 1 15 5 5 -5 -14 9 -20 -20 -19 -20 -20 -20 -20 -20 -20 -20 -20 -20 -20 -20 -20 -20 -20 14 -20 -1 -20 -20 -20 -20 -20 -20 -20 -20 -20 -20 -20 -20 -20 -20 -20
8 3 1 11 21 28 33 22 25 26 26 30 17 9 5 7 5 16 25 -20 -20 -18 22 -10 -20 -20 -20 -20 -20 -20 -20 -20 -20 -20 -20 -5 -10 -20 -20 -20 -20 -20 -20 -20 -20 -20 -20 -20 -20 -20 -20 -20 -20 -20
30 28 33 29 34 34 26 23 33 31 27 11 7 2 10 4 -12 -19 22 28 -8 -20 -9 5 -20 -20 -20 -20 -20 -20 -20 -20 -20 1 16 -8 -20 -20 -20 -20 -20 -20 -20 -20 -20 -20 -20 -20 -20 -20 -20 -20 -20 -20
30 33 34 30 20 18 18 14 11 -0 0 9 10 12 11 -1 13 24 32 11 3 -20 -12 -8 -20 -20 -20 -20 -20 -20 -20 -20 -20 -20 -20 -20 -20 -20 7 -20 -20 -20 -20 -20 -20 -20 -20 -20 -20 -20 -20 -20 -20 -20
33 30 25 23 14 -6 -20 -20 -20 -8 -4 -17 -20 -20 -18 19 31 28 24 10 6 7 0 12 19 -20 -13 -20 -20 -20 -20 -20 -20 -20 -20 -20 -20 -20 -20 -20 -20 -20 -20 -20 -20 -20 -20 -20 -20 -20 -20 -20 -20 -20
27 31 30 22 19 9 -5 -16 -9 -3 -2 -3 -20 -6 -20 13 18 18 9 -17 -8 -9 17 29 2 -0 -20 -2 -20 -20 -15 -12 -12 -2 -5 -17 -20 -20 -20 -20 -20 -20 -20 -20 -20 -20 -20 -20 -20 -20 -20 -20 -20 -20
-20 -15 -8 11 21 23 25 27 26 23 -18 20 7 -20 -20 -8 -5 21 -20 -20 -20 3 17 24 9 19 -20 6 -6 19 -13 -13 -10 3 -5 -20 -17 -20 -20 -20 -20 -20 -20 -20 -20 -20 -20 -20 -20 -20 -8 -20 -20 -20
6 -1 -7 12 -8 11 17 21 25 -8 -18 -20 -20 -18 23 8 -19 20 -19 2 21 -13 7 17 16 9 7 -1 21 -6 -16 -6 -20 -20 -19 -3 -20 -20 -20 -20 -20 -20 -20 -20 -20 -20 -20 -20 -20 -20 -20 -20 -19 -20
14 -4 25 11 18 -12 19 16 -1 10 -12 -12 -20 6 -20 -20 -20 23 12 21 4 8 -16 -20 -9 -8 -18 -5 3 -13 5 -1 -20 -20 -12 -7 -20 -20 -20 -20 -20 -20 -20 -20 -20 -20 -15 -20 -20 -20 -20 -20 -20 -20
-20 -13 9 29 27 8 17 24 19 8 6 -5 -3 23 32 9 29 16 13 -4 -15 -12 -11 -11 -6 -10 -10 -20 -20 -20 -20 -16 -20 -15 8 -20 -11 -20 -20 -13 -20 -20 -20 -20 -20 -20 -20 -20 -20 -20 -20 -20 -20 -20
6 3 -19 1 2 27 33 6 11 -16 -16 -17 2 19 6 10 8 2 -1 -20 -19 -8 2 7 4 -1 -18 -9 4 12 -9 -12 -20 -6 -8 -19 -18 -3 -1 -14 -20 -20 -20 -20 -20 -20 -20 -20 -20 -20 -20 -20 -20 -20
-12 -20 2 4 -9 12 21 8 13 28 13 -4 13 18 15 5 0 -19 -19 -20 -20 -3 -15 -1 -19 -20 1 1 11 -20 2 -13 -4 -4 -3 0 -5 -0 -19 -20 -20 -20 -20 -20 -20 -20 -20 -20 -20 -20 -20 -20 -20 -20
13 8 17 19 15 6 -15 -6 8 -11 -1 18 14 -2 -10 -1 -7 -5 -10 -19 -20 -14 -9 -15 -8 -15 -11 7 0 -20 0 2 -9 5 -1 -15 -14 -15 -20 -20 -20 -20 -20 -20 -20 -20 -20 -20 -20 -20 -20 -20 -20 -20
9 -3 7 0 9 13 21 13 1 11 9 7 -4 -13 -9 -18 -2 5 7 3 -7 -20 -12 -18 -5 13 -19 -5 2 -3 -0 -6 -8 -12 -8 -20 -11 -16 -20 -20 -20 -20 -20 -20 -20 -20 -20 -20 -20 -20 -20 -20 -20 -20
18 -4 14 8 24 24 26 24 27 36 33 30 10 18 19 15 14 10 -18 -19 -20 -20 10 -20 -2 -18 -19 -20 -19 -20 6 -3 -18 12 17 -12 -19 -20 -20 -20 -20 -20 -20 -20 -20 -20 -20 -20 -20 -20 -20 -20 -20 -20
-14 -10 7 14 20 21 25 22 7 -6 4 -6 -4 11 6 5 -9 -13 -8 -10 -19 -20 -17 -18 -20 -20 4 3 -14 -19 -2 0 -8 0 2 -0 -15 -17 -18 -20 -20 -20 -20 -20 -20 -20 -20 -20 -20 -20 -20 -20 -20 -20
-20 -20 -17 -11 3 24 23 13 18 2 6 9 18 14 10 10 21 10 1 -1 -18 -19 -20 -11 4 4 7 4 -0 -1 -16 -14 -18 10 18 -4 -9 -16 -16 -20 -20 -20 -20 -20 -20 -20 -20 -20 -20 -20 -20 -20 -20 -20
-20 -20 -20 -20 -20 -7 24 28 11 -8 5 14 19 14 13 20 22 22 6 -17 -20 -3 -18 -1 -3 -4 -2 -18 0 -1 -20 -20 -20 -18 -2 3 8 7 9 8 -3 -14 -20 -20 -20 -20 -20 -20 -20 -20 -20 -20 -20 -20
-7 -20 -20 -20 -20 -3 8 12 10 18 7 -8 9 5 5 3 3 5 -3 -20 -9 -1 -20 3 2 -1 -20 -20 -20 -20 -20 -4 0 -20 -20 -20 -17 -18 -20 -20 -20 -20 -20 -20 -20 -20 -20 -20 -20 -20 -20 -20 -20 -3
-20 -13 -12 -20 -16 -15 -8 -18 -2 3 3 7 -3 0 6 8 6 -0 -8 -20 -0 3 -0 2 0 -20 -20 -20 -20 -20 -20 -20 -20 -20 -20 -20 -20 -20 -20 -20 -20 -20 -20 -20 -20 -20 -20 -20 -20 -20 -20 -6 -5 -2
-20 -20 -20 -20 -20 -19 -20 -9 -7 -7 6 3 -5 1 7 4 -2 -20 -11 2 1 5 -2 -20 -20 -20 -20 -20 -20 -20 -20 -19 -20 -20 -20 -20 -20 -20 -20 -20 -20 -20 -20 -20 -20 -20 -20 -20 -20 -20 -7 -4 -0 -0
-20 -20 -20 -20 -20 -20 -7 -15 -1 3 3 -0 -1 -16 -2 0 1 -1 -0 5 9 4 -7 -3 -20 -20 -20 -20 -20 -20 -20 -20 -20 -20 -20 -20 -20 -20 -20 -20 -20 -20 -20 -20 -20 -20 -20 -20 -20 -5 -3 -4 -2 -3
-20 -20 -20 -20 -20 -20 -20 -20 2 2 3 5 3 -0 7 -4 -20 -2 7 6 6 4 10 12 -1 -0 -16 1 1 -6 -17 -18 -20 -20 -20 -20 -20 -20 -20 -20 -20 -20 -20 -20 -20 -20 -14 -20 -18 -5 -20 -3 -7 -5
-20 -13 -19 -15 -18 -17 -3 -1 -2 2 2 6 -5 -3 1 -4 -1 0 -2 5 4 -3 -1 3 9 -1 -5 3 2 -5 -6 -20 -20 -20 -20 -20 -20 -20 -20 -20 -20 -20 -20 -6 -4 -20 -20 -20 -20 -20 -20 -3 -1 -0
-16 -4 -9 -19 -20 -20 -2 -3 -11 0 6 10 -2 -8 8 5 -3 -0 5 -1 1 -0 -3 -2 -6 -4 3 5 2 -4 -20 -20 -20 -20 -20 -20 -20 -20 -20 -20 -20 -20 -20 -20 -19 -4 -8 -19 -5 -4 -2 0 1 2
-20 -14 -6 -8 -10 -13 -3 2 6 6 5 -18 8 -4 -1 -13 -3 -1 2 1 1 -3 -11 -8 -7 -2 0 2 1 -3 -20 -20 -20 -20 -20 -20 -20 -20 -20 -9 -6 -20 -20 -3 -20 -14 -2 -2 -2 -0 1 2 -0 1
-16 -13 -1 -20 -11 -18 -20 9 9 -10 -20 -9 2 -4 -2 -3 1 2 2 4 6 3 -1 0 1 -4 -13 -20 -20 -20 -20 -20 -20 -20 -20 -20 -20 -4 -6 -3 -2 -1 -0 -1 -17 -13 -2 -3 -1 0 0 1 2 2
-17 -20 7 -11 -6 -3 4 8 -14 -12 -3 -5 -17 -18 -3 0 3 1 1 -1 -9 -4 -2 -3 -7 -7 -10 -8 -20 -20 -20 -20 -20 -20 -20 -20 -20 -5 -3 -1 -0 0 0 2 0 -1 -10 -0 -1 1 2 1 2 1
-15 -3 -11 -1 -2 2 0 4 -3 -4 -5 -8 -7 -12 -8 -1 1 -1 -2 1 -14 -0 -1 -8 -20 -3 -20 -20 -20 -20 -20 -16 -20 -20 -20 -20 -5 -2 2 0 2 2 2 2 2 0 0 -1 0 1 2 -0 -2 -8
-1 -4 -0 5 -0 -1 2 3 2 1 2 1 -0 -0 0 0 -2 0 -20 1 1 -2 -20 0 -2 -20 -20 -20 -20 -20 -20 -20 -20 -20 -20 -6 -4 0 1 1 1 1 1 2 1 1 1 -0 -0 -0 -1 -1 -2 -19
-1 -0 -0 -4 1 1 -20 -17 0 -1 -1 -1 0 -0 -3 -3 -3 2 -1 -0 2 2 -1 -0 -1 -4 -20 -20 -20 -20 -20 -20 -20 -17 -20 -20 -20 -17 -14 1 2 2 2 2 1 2 0 0 0 -1 -6 -20 -20 -20

GFSWCAN_prec_radar_057.txt.gz
Reflectivity
19 9 -15 -20 -20 -3 -4 -4 4 31 35 27 20 19 3 -17 15 21 26 28 23 11 -20 -20 -20 -20 -19 -20 -20 -20 -20 -20 18 24 5 -19 -20 -20 -20 -20 -20 -20 -20 -20 -20 -20 -20 -20 -20 -20 -20 -20 -20 -20
1 -19 -20 -20 -20 -1 14 24 27 26 16 -10 -20 0 -18 -20 18 7 29 23 16 28 10 -20 -20 -20 -20 -20 -20 -20 -20 -2 3 16 3 -20 -20 -3 -20 -20 -20 -20 -20 -20 -20 -20 -20 -20 -20 -20 -20 -20 -20 -20
-20 -20 6 27 24 18 10 3 9 -20 -20 -20 -20 -20 -20 -20 7 -4 14 15 16 21 18 3 5 -20 -20 -20 -18 -20 -20 -19 -20 -20 -20 -20 -20 -20 -20 -20 -20 -20 -20 -20 -20 -20 -20 -20 -20 -20 -20 -20 -20 -20
-2 -13 -10 -13 -20 -20 -20 -20 -20 -20 -20 -20 -11 -20 -20 -1 13 -5 27 18 21 19 14 30 28 -13 8 -20 -5 -20 -12 22 7 -20 -20 -20 -20 -20 -20 -20 -20 -20 -20 -20 -20 -20 -20 -20 -20 -20 -20 -20 -20 -20
2 8 -20 -20 -20 -20 -20 -20 -20 -20 -20 -20 -17 -20 -20 12 4 24 32 17 36 41 21 33 -3 -8 -20 23 -20 -20 23 38 15 -9 -14 -20 -20 -20 -20 -20 -20 -20 -20 -20 -20 -20 -20 -20 -20 -20 -20 -20 -20 -20
-20 -20 -20 -20 -20 -20 -20 -20 -20 -20 -20 -20 -20 -20 -3 11 14 37 39 24 23 19 40 24 34 20 -20 -19 20 -20 -14 39 32 5 -6 2 -20 -20 -20 -20 -20 -20 -20 -20 -20 -20 -20 -20 -20 -20 -20 -20 -20 -20
-20 -20 -20 -20 -20 -20 -20 -20 -15 -20 -20 -20 -20 4 14 11 18 26 28 40 35 22 15 2 -12 -19 -18 5 20 21 20 11 18 12 -19 -20 -20 4 -16 -20 -20 -20 -20 -20 -20 -20 -20 -20 -20 -20 -20 -20 -20 -20
11 16 17 7 -18 -20 -20 -17 -20 -20 -6 -5 11 18 11 31 35 15 19 20 5 31 32 9 -9 -20 -15 -20 -20 -20 -6 10 0 11 11 16 -20 -14 -6 -20 -20 -20 -20 -20 -20 -20 -20 -20 -20 -20 -20 -20 -20 -20
-13 7 16 16 13 11 5 6 19 29 29 24 20 31 29 23 38 40 44 20 1 29 11 0 -4 -20 -20 -20 -16 -20 4 1 -0 -17 -20 4 -10 -20 -20 -20 -20 -20 -20 -20 -20 -20 -20 -20 -20 -20 -20 -20 -20 -20
17 17 29 30 30 27 22 24 23 30 28 29 29 21 17 39 39 36 28 -18 -20 -20 -20 -20 -20 -20 -20 -20 -20 -20 -1 -20 -20 -20 -20 -20 -20 -20 -20 -19 4 -20 -20 -20 -20 -20 -20 -20 -20 -20 -20 -20 -20 -20
29 27 0 19 22 18 19 21 24 28 30 27 30 39 43 28 27 -2 -20 -20 -20 -20 -20 -20 -20 -20 -10 -6 1 -20 -12 -13 2 -20 -2 -2 5 5 10 15 -20 -20 -20 -20 -20 -20 -20 -20 -20 -20 -20 -20 -20 -20
26 29 31 21 17 1 10 8 14 24 39 37 25 18 15 27 28 -16 3 0 -14 -20 -20 -20 -20 -20 10 20 12 -1 -1 -20 -20 -20 -11 -14 11 -5 -4 -16 -20 -20 -20 -20 -19 -19 -20 -20 -20 -20 -20 -20 -20 -20
28 32 23 25 30 30 28 33 35 30 15 -18 -12 7 30 10 20 21 -6 -20 -18 -20 -20 -15 -20 -8 36 22 24 0 -14 -20 -20 -20 -20 -18 -20 -20 -20 -20 -20 -20 -20 -15 -20 -20 -20 -20 -20 -20 -20 -20 -20 -20
32 27 25 29 26 28 32 34 31 25 2 2 22 3 16 26 14 -13 -20 -20 -5 -15 -20 -18 8 6 22 17 12 12 9 -2 5 14 15 12 11 13 -10 -20 -20 -20 -20 -20 -20 -20 -20 -20 -20 -20 -20 -20 -20 -20
30 36 32 26 30 27 18 12 7 -12 -20 -20 -11 3 15 6 -6 -13 -4 -15 -13 -20 -20 -20 -20 -20 2 -20 -10 -16 -8 -8 -20 10 16 20 4 -15 -13 -20 -20 -20 -20 -20 -20 -20 -20 -20 -20 -20 -20 -20 -20 -20
5 14 37 35 31 18 15 16 -5 -20 -20 -20 -19 -20 -20 -20 -18 -20 -20 -20 -20 -20 -20 -20 -20 -20 -20 -20 -20 -20 -19 -19 -2 -10 -20 -20 -12 -15 -20 -20 -20 -20 -20 -20 -20 -20 -20 -20 -20 -20 -20 -20 -20 -20
-20 -7 5 12 6 23 27 29 20 11 22 -13 -5 2 3 -12 -8 -20 -17 -20 -20 -18 -12 -16 -20 -20 -20 -20 -20 -20 -15 -20 -20 -20 -17 -20 -12 -20 -18 -20 -19 -14 -20 -20 -20 -20 -20 -20 -20 -20 -20 -20 -20 -20
-20 -16 -5 10 4 -1 -6 17 26 19 13 17 14 3 -11 -5 -10 -4 3 -20 -20 -20 -20 -20 -20 -20 -20 -20 -18 -12 -10 -2 6 -18 2 -16 -20 -12 -8 -20 -20 1 -7 -20 -20 -20 -20 -20 -20 -20 -20 -20 -20 -20
-19 -20 -20 -10 1 -10 21 28 23 1 7 17 23 22 22 24 31 31 23 20 14 -11 -0 18 13 8 5 1 -3 -14 -13 8 2 22 23 14 -12 8 7 -20 -20 -0 -20 -20 -20 -19 -20 -20 -20 -20 -20 -20 -20 -20
-20 -20 -20 -20 -20 -20 -16 3 8 5 0 11 25 20 20 13 18 25 20 24 22 18 18 15 11 10 9 13 24 6 3 14 -13 -5 8 9 7 -7 -12 -18 -18 -7 -15 -18 -16 -17 -19 -17 -20 -20 -20 -20 -20 -20
-20 -20 -20 -20 -20 -20 -20 -6 4 20 19 4 23 22 14 19 -3 -2 -4 8 7 5 11 17 18 22 22 25 22 23 26 23 15 -20 -20 -2 4 -17 -8 -0 -14 -16 -18 -17 -11 -20 -20 -20 -20 -20 -20 -20 -20 -20
-20 -20 -20 -20 -20 -20 -20 -4 -16 4 10 20 20 23 12 11 8 10 11 3 3 14 15 16 17 18 13 10 8 -10 -20 -18 -19 -12 -8 -16 -16 -17 -17 -19 -20 -18 -19 -20 -20 -20 -20 -20 -20 -20 -20 -20 -20 -20
-20 -20 -20 -20 -20 -20 -19 -20 -20 -7 -20 -16 11 -1 8 4 7 -6 -12 10 13 14 11 12 8 -2 -2 -2 -20 -10 1 -18 -18 -17 -20 -20 -19 -19 -20 -20 -20 -20 -15 -20 -20 -20 -20 -20 -20 -20 -20 -20 -20 -20
-20 -20 -20 -20 -20 -20 -20 -20 -20 -20 -20 -20 -20 -18 -20 -16 -5 -20 3 8 14 -12 -15 -7 1 -20 -12 -12 -14 -3 2 -18 -17 -16 -19 -20 -20 -18 -9 -6 -19 -20 -20 -20 -20 -20 -20 -20 -20 -20 -20 -20 -20 -20
-20 -20 -20 -20 -20 -20 -20 -20 -2 -19 -20 -20 -11 -20 -20 -20 -20 -20 -2 4 -20 -20 -20 -14 -20 -20 -20 -17 -16 -15 -10 -12 -8 -18 -3 -17 -20 -20 -19 -19 -19 -20 -20 -20 -20 -20 -20 -20 -20 -20 -20 -20 -20 -20
-20 -14 -19 -20 -6 -13 -4 -9 3 1 -2 -20 -20 -20 -20 -20 -20 -20 -3 2 -16 -20 -20 -18 -6 -20 -20 -19 -20 -20 -13 -14 -19 -20 -18 -19 -20 -19 -18 -20 -11 -11 -20 -20 -20 -20 -20 -20 -20 -20 -20 -20 -20 -20
-4 -14 -20 -20 -20 3 1 -6 -15 -20 -20 -10 -3 -18 -12 -20 -20 2 -1 -14 -8 -4 -19 -19 -20 -20 -20 -20 -20 -19 -20 -20 -20 -20 -18 -20 -20 -20 -20 -20 -20 -20 -20 -20 -20 -20 -20 -20 -20 -20 -20 -20 -20 -20
-20 -17 -7 -1 -20 -20 -16 -20 -20 -20 -20 -20 -19 -20 -20 -20 -11 7 3 -19 -20 -20 -20 -20 -20 -20 -20 -20 -20 -20 -20 -20 -20 -20 -20 -20 -20 -20 -20 -20 -20 -20 -20 -20 -20 -20 -20 -20 -20 -20 -20 -20 -20 -20
-19 -20 -20 -20 -17 -20 -20 -20 -7 -3 -20 -20 -20 -20 -6 -6 3 -1 -1 -20 -20 -20 -20 -20 -18 -20 -20 -20 -20 -20 -20 -20 -20 -20 -20 -20 -20 -20 -20 -20 -20 -20 -20 -20 -20 -5 -20 -19 -20 -20 -20 -20 -20 -20
-20 -20 -11 -20 -20 -18 -16 -20 -20 -18 -20 -20 -15 -8 -20 -20 -13 -20 -20 -16 -19 -20 -20 -20 -20 -20 -20 -20 -20 -20 -20 -20 -20 -20 -20 -20 -20 -20 -20 -20 -20 -20 -20 -20 -20 -20 -20 -20 -20 -20 -20 -20 -20 -20
-20 -20 -6 -20 0 -9 -16 -20 -20 -20 -20 -20 -20 -20 -20 -20 -20 -20 -20 -20 -18 -17 -20 -20 -20 -20 -20 -20 -20 -20 -20 -20 -20 -20 -20 -20 -20 -20 -20 -20 -20 -20 -20 -20 -20 -20 -20 -20 -20 -20 -20 -20 -20 -20
-6 -13 2 -20 4 6 4 12 10 -10 -5 -17 -20 -20 -20 -20 -20 -20 -20 -20 -20 -20 -20 -20 -20 -20 -20 -20 -20 -20 -20 -20 -20 -20 -20 -20 -20 -20 -20 -20 -20 -20 -20 -20 -20 -20 -20 -20 -20 -3 -19 -20 -20 -20
-20 -20 -20 -20 -18 -20 -20 -13 -20 -20 -20 -20 -8 -20 -20 -20 -20 -15 -20 -20 -20 -20 -20 -20 -20 -20 -20 -20 -20 -20 -20 -20 -20 -1 -20 -20 -20 -20 -20 -20 -20 -20 -20 -20 -20 -20 -20 -20 -20 -20 -20 -20 -20 -20

GFSWCAN_prec_radar_060.txt.gz
Reflectivity
30 28 28 33 28 27 10 -20 -20 -20 -20 -20 2 5 29 20 23 -3 18 33 11 24 14 15 -20 -20 9 5 -18 -20 -20 -20 -20 27 2 3 -20 -20 -20 -20 -20 -20 -20 -20 -20 -20 -20 -20 -20 -20 -20 -20 -20 -20
35 27 29 27 27 -6 -20 -20 -20 -20 -20 -20 -12 16 34 23 -6 -20 6 30 35 21 16 -18 2 -20 -4 -6 -20 -20 -20 -20 -20 10 -8 16 13 -20 -20 -20 -20 -20 -20 -20 -20 -20 -20 -20 -20 -20 -20 -20 -20 -20
26 27 22 6 -13 -20 -7 -18 -20 -20 23 10 18 28 28 -5 -11 2 12 20 14 31 -18 -16 11 -20 -20 -20 -20 16 -20 -5 -20 19 -10 10 18 -15 -18 -20 -20 -20 -20 -20 -20 -20 -20 -20 -20 -20 -20 -20 -20 -20
-5 -11 6 -7 -20 -20 -20 -20 -11 -4 30 22 31 28 27 -18 -20 -12 -10 36 23 26 14 -20 5 -20 -20 -20 -20 -20 -20 -18 -20 -20 -20 -20 4 3 -17 -20 -20 -20 -20 -20 -20 -20 -20 -20 -20 -20 -20 -20 -20 -20
9 12 6 -6 -11 12 19 25 33 36 35 30 19 16 -17 -20 24 12 24 28 11 27 6 10 -20 -20 -0 -20 -20 -20 -9 -13 25 13 -8 16 -13 -20 -20 -20 -20 -20 -20 -20 -20 -20 -20 -20 -20 -20 -20 -20 -20 -20
-20 -14 9 14 15 14 12 7 -19 -19 -20 -20 -20 -20 -20 -8 1 15 29 35 34 21 11 -7 -20 -20 22 3 10 -6 38 24 16 -20 -20 -19 20 -20 -20 -20 -20 -20 -20 -20 -20 -20 -20 -20 -20 -20 -20 -20 -20 -20
-20 -20 -20 -20 -20 -20 -20 -20 -20 -20 -20 -20 -20 -20 13 6 4 10 24 27 22 1 11 34 9 15 -10 -5 14 14 -2 -20 30 27 4 41 30 15 -20 -20 -20 -20 -20 -20 -20 -20 -20 -20 -20 -20 -20 -20 -20 -20
-20 -20 -20 -20 -20 -20 -20 -20 -20 -20 -20 -20 -20 -20 -19 24 22 18 35 35 20 25 34 39 33 28 12 3 16 4 2 -20 -19 -8 23 36 22 1 -20 -20 -20 -20 -20 -20 -20 -20 -20 -20 -20 -20 -20 -20 -20 -20
-20 -20 -20 -20 -20 -20 -20 -20 -20 -20 -12 -20 -13 11 20 16 20 22 33 41 37 36 33 8 30 20 -15 -19 -20 -20 -11 -3 -0 -3 21 26 10 -0 3 -20 -20 -20 3 6 -20 -20 -20 -20 -20 -20 -20 -20 -20 -20
-20 -20 -20 -20 -20 -20 -20 -20 -20 -20 -19 8 34 33 25 16 28 32 33 41 39 29 5 -20 -8 -19 5 3 -20 -17 -10 -20 -20 -20 -20 -20 -20 -20 -20 -20 -20 -20 -11 -19 -20 -20 -20 -20 -20 -20 -20 -20 -20 -20
10 9 3 -20 -20 -20 -20 -20 -20 -11 28 32 21 22 25 30 36 38 47 43 15 9 -11 -18 -20 -20 -20 -20 -20 -20 -20 -11 -20 -20 -20 -20 -20 -20 -20 -20 -20 -20 -10 -1 8 -20 -20 -20 -20 -20 -20 -20 -20 -20
26 24 16 12 15 6 -12 12 35 31 19 11 29 22 32 38 37 33 27 -0 -20 -16 -14 -20 -20 -20 -20 -20 -20 -20 -20 -20 -20 -20 -20 -20 -20 -20 -20 -20 -20 -15 -9 15 -20 -20 -20 -20 -20 -20 -20 -20 -20 -20
29 26 11 -7 17 4 15 16 15 33 39 32 23 28 29 36 24 20 4 -17 -14 -20 -4 -20 -20 -20 -20 -20 -20 -12 -0 -20 -20 -18 -20 -20 -20 -19 -6 4 13 21 -11 -19 -20 -16 -20 -20 -19 -17 -20 -20 -20 -20
21 28 32 13 -14 3 12 27 32 20 7 37 38 26 35 3 13 -3 -20 -20 -20 -18 -20 -20 -20 -20 -16 -6 31 29 28 -12 -20 -20 -20 -20 -20 -19 14 21 5 -8 -10 -20 -20 -20 -20 -18 -20 -20 -20 -20 -20 -20
34 28 22 27 18 23 37 27 17 -8 -20 -13 -4 -12 9 4 8 22 16 -15 -6 -20 -20 -20 -20 -20 5 20 27 4 -12 -9 -20 -20 -3 -7 -12 10 5 -3 -8 -20 -20 -20 -16 -18 -18 -20 -20 -17 -6 -20 -20 -20
23 13 25 27 14 14 30 19 -20 -20 -20 -20 -8 9 8 -16 -3 2 1 -20 -20 -20 -20 -20 -20 -20 -20 -20 -19 -11 -20 -20 -6 9 -5 -17 -14 -8 -14 1 4 -5 -17 -20 -18 -18 -20 -10 0 0 -19 -20 -20 -20
31 15 9 25 28 31 27 5 -11 5 -17 -20 -20 -20 -10 -20 -13 -15 -4 10 -11 -20 -20 -20 -20 -4 -20 -20 -20 -20 -20 -16 -20 -20 -20 2 7 9 4 -18 -20 -20 -17 -17 -7 -20 -19 -1 -7 -20 -20 -20 -20 -20
7 29 27 33 25 -3 9 4 -5 -17 -19 -3 2 1 -20 -20 12 20 20 -11 -20 -20 -20 -20 -20 -20 -20 -20 -20 -20 -20 -3 -6 -12 -18 -15 -15 -14 -3 -12 -1 -2 -6 -9 -20 -20 -20 -20 -20 -20 -20 -20 -20 -20
-20 -15 -4 3 12 13 23 22 19 -1 -1 8 15 17 7 7 17 19 9 6 -20 -20 -20 -18 -8 -14 -19 -17 -12 -3 15 18 9 7 24 27 25 7 4 12 6 -12 -20 -20 -20 -20 -20 -19 -20 -20 -20 -20 -20 -20
-20 -20 -20 3 -20 -20 -15 -17 -20 -10 -7 14 23 16 8 17 18 18 16 16 20 12 5 4 8 11 13 16 18 17 18 28 13 12 16 16 11 2 5 -5 -20 -20 -20 -20 -20 -20 -18 -18 -17 -18 -20 -20 -20 -20
-20 -20 -20 -20 -20 -20 -20 -20 0 7 8 5 9 9 14 10 6 -0 -8 3 -6 -5 11 17 19 20 19 18 26 30 28 14 7 5 1 7 14 -4 -6 -3 -17 -18 -18 -14 -7 8 7 -6 -18 -19 -20 -20 -20 -20
-20 -20 -20 -20 -20 -20 -20 -1 -16 15 5 15 14 7 10 9 6 7 10 -0 8 13 15 15 17 16 11 11 14 8 13 5 2 -4 -7 -17 -16 -16 -15 -6 -14 -8 -8 -4 -10 -17 -19 -20 -20 -20 -20 -20 -20 -20
-20 -20 -20 -20 -20 -20 -4 -5 -18 -5 -4 9 11 6 9 11 16 6 -2 4 13 15 15 10 11 14 8 10 5 -16 -13 -20 -20 -20 -20 -20 -20 -20 -20 -20 -19 -20 -20 -17 -18 -15 -17 -20 -20 -20 -20 -20 -20 -20
-20 -20 -20 -20 -20 -20 -20 -20 -20 -4 6 6 7 8 11 9 2 -0 4 1 13 14 7 10 3 -13 -14 -6 -10 -12 -3 -16 -19 -19 -16 -20 -20 -15 -19 -19 -19 -17 -17 -18 -20 -20 -20 -20 -20 -20 -20 -20 -20 -20
-20 -20 -20 -20 -20 -20 -20 -20 -20 -17 -10 5 6 4 2 -9 -20 -20 -20 -9 -20 -20 -13 -16 -20 -20 -20 -20 -19 -17 -16 -20 -20 -20 -4 -11 -19 -18 -19 -20 -20 -20 -20 -20 -20 -20 -20 -20 -20 -20 -20 -20 -20 -20
-20 -16 -20 -20 -11 -16 -20 -20 -20 -20 -20 -20 -20 -20 -15 -20 -20 -20 -11 -8 -20 -20 -20 -20 -20 -20 -20 -20 -20 -20 -19 -20 -20 -20 -17 -19 -19 -20 -20 -20 -20 -20 -20 -20 -20 -20 -20 -20 -20 -20 -20 -20 -20 -20
-15 -20 -20 -19 -18 -18 -20 -20 -20 -20 -20 -20 -14 -17 -20 -20 -20 -2 -3 -20 -20 -20 -20 -20 -20 -20 -20 -20 -20 -20 -20 -20 -20 -20 -20 -20 -20 -20 -20 -20 -20 -20 -20 -20 -20 -20 -20 -20 -20 -20 -20 -20 -20 -20
-13 -10 -20 -20 -20 -20 -20 -20 -20 -20 -20 -20 -20 -20 -20 -20 -12 -17 -19 -20 -20 -20 -20 -20 -20 -20 -20 -20 -20 -20 -20 -20 -20 -20 -20 -20 -20 -20 -20 -20 -20 -20 -20 -20 -20 -20 -20 -20 -20 -20 -20 -20 -20 -20
-19 -20 -20 -20 -20 -20 -20 -20 -20 -13 -20 -20 -20 -20 -20 -12 -4 -9 -14 -20 -20 -20 -20 -20 -20 -20 -20 -20 -20 -20 -20 -20 -20 -20 -20 -20 -20 -20 -20 -20 -20 -20 -20 -20 -20 -20 -17 -20 -20 -20 -20 -20 -20 -20
-20 -20 -20 -20 -20 -20 -17 -20 -20 -20 -20 -20 -10 -17 -20 -20 -2 -20 -20 -20 -20 -20 -20 -20 -20 -20 -20 -20 -20 -20 -20 -20 -20 -20 -20 -20 -20 -20 -20 -20 -20 -20 -20 -20 -20 -20 -20 -20 -20 -20 -20 -20 -20 -20
-20 -20 -20 -20 -20 -20 -20 -20 -20 -20 -20 -20 -20 -20 -20 -18 -20 -20 -20 -20 -20 -20 -20 -20 -20 -20 -20 -20 -20 -20 -20 -20 -20 -20 -20 -20 -20 -20 -20 -20 -20 -20 -20 -20 -20 -20 -20 -20 -20 -20 -20 -20 -20 -20
-20 -20 -20 -20 -20 -12 -19 -20 -20 -19 -20 -20 -20 -20 -20 -20 -20 -20 -20 -20 -20 -20 -20 -20 -20 -20 -20 -20 -20 -20 -20 -20 -20 -20 -20 -20 -20 -20 -20 -20 -20 -20 -20 -20 -20 -20 -20 -20 -20 -20 -20 -20 -20 -20
-20 -20 -20 -20 -17 -18 7 -20 -20 -20 -20 -20 -20 -20 -20 -20 -20 -20 -20 -20 -20 -20 -20 -20 -20 -20 -20 -20 -20 -20 -20 -20 -20 -20 -20 -20 -20 -20 -20 -20 -20 -20 -20 -20 -20 -20 -20 -20 -20 -20 -20 -20 -20 -20